CW0005 Weather Reports


Display with metric or nautical units.
time (UTC)temp
F
wind
direction
speed
MPH
gust
MPH
rain 1hr
in
rain 24hr
in
rain mn
in
humidity
%
barometer
mb
20260510013024 63 13 1.0 6.0 0.00 0.00 0.00 30 1012.6
20260510011523 64 13 1.0 8.0 0.00 0.00 0.00 30 1012.4
20260510010005 65 13 2.0 9.0 0.00 0.00 0.00 29 1012.3
20260510004504 66 13 1.0 5.0 0.00 0.00 0.00 30 1012.1
20260510003004 66 13 2.0 9.0 0.00 0.00 0.00 30 1011.7
20260510001506 67 13 1.0 6.0 0.00 0.00 0.00 29 1011.5
20260510000004 67 13 2.0 9.0 0.00 0.00 0.00 30 1011.5
20260509234509 68 13 3.0 10.0 0.00 0.00 0.00 30 1011.3
20260509233030 68 13 2.0 10.0 0.00 0.00 0.00 29 1011.1
20260509231504 69 13 3.0 10.0 0.00 0.00 0.00 29 1010.9
20260509223007 71 280 3.0 10.0 0.00 0.00 0.00 33 1010.3
20260509221512 71 334 2.0 10.0 0.00 0.00 0.00 36 1010.0
20260509214509 70 265 0.0 9.0 0.00 0.00 0.00 42 1009.9
20260509211521 69 13 1.0 9.0 0.00 0.00 0.00 44 1009.9
20260509210008 69 13 2.0 9.0 0.00 0.00 0.00 45 1009.9
20260509201518 69 13 4.0 10.0 0.00 0.00 0.00 43 1009.7
20260509200020 70 13 2.0 9.0 0.00 0.00 0.00 41 1009.8
20260509194509 69 13 2.0 10.0 0.00 0.00 0.00 42 1009.7
20260509191515 70 13 3.0 11.0 0.00 0.00 0.00 38 1009.4
20260509190018 71 13 2.0 9.0 0.00 0.00 0.00 34 1009.0
20260509184529 72 313 1.0 8.0 0.00 0.00 0.00 32 1009.0
20260509183030 72 307 3.0 9.0 0.00 0.00 0.00 31 1008.9
20260509181518 72 324 2.0 10.0 0.00 0.00 0.00 31 1008.8
20260509180021 72 197 2.0 10.0 0.00 0.00 0.00 29 1008.8
20260509174521 73 326 3.0 9.0 0.00 0.00 0.00 28 1008.6
20260509173026 73 67 2.0 9.0 0.00 0.00 0.00 27 1008.4
20260509171529 74 311 2.0 10.0 0.00 0.00 0.00 27 1008.5
20260509170016 72 223 2.0 10.0 0.00 0.00 0.00 31 1008.6
20260509164522 72 184 2.0 8.0 0.00 0.00 0.00 30 1008.6
20260509163049 71 330 5.0 15.0 0.00 0.00 0.00 29 1008.7
20260509161524 70 49 2.0 7.0 0.00 0.00 0.00 31 1008.6
20260509160003 69 221 0.0 9.0 0.00 0.00 0.00 33 1008.6
20260509154503 68 103 2.0 9.0 0.00 0.00 0.00 31 1008.7
20260509153010 67 221 1.0 6.0 0.00 0.00 0.00 35 1008.6
20260509151503 66 13 2.0 10.0 0.00 0.00 0.00 34 1008.5
20260509150004 66 13 3.0 11.0 0.00 0.00 0.00 35 1008.4
20260509144504 65 13 2.0 9.0 0.00 0.00 0.00 39 1008.4
20260509143010 63 13 2.0 10.0 0.00 0.00 0.00 46 1008.4
20260509141507 60 13 1.0 4.0 0.00 0.00 0.00 52 1007.6
20260509140007 57 13 0.0 2.0 0.00 0.00 0.00 62 1007.5
20260509134512 54 13 0.0 0.0 0.00 0.00 0.00 68 1007.4
20260509133015 52 13 0.0 0.0 0.00 0.00 0.00 73 1007.2
20260509131508 50 13 0.0 0.0 0.00 0.00 0.00 75 1007.0
20260509130005 49 13 0.0 3.0 0.00 0.00 0.00 78 1007.1
20260509124507 47 13 0.0 0.0 0.00 0.00 0.00 80 1007.0
20260509123015 47 13 0.0 0.0 0.00 0.00 0.00 82 1007.0
20260509121521 46 13 0.0 0.0 0.00 0.00 0.00 80 1006.9
20260509114539 46 13 0.0 0.0 0.00 0.00 0.00 73 1006.5
20260509113014 46 13 0.0 0.0 0.00 0.00 0.00 72 1006.3
20260509111513 47 13 0.0 0.0 0.00 0.00 0.00 71 1006.1
20260509110021 47 13 0.0 0.0 0.00 0.00 0.00 72 1006.0
20260509104526 48 13 0.0 0.0 0.00 0.00 0.00 73 1006.2
20260509103016 47 13 0.0 1.0 0.00 0.00 0.00 74 1006.2
20260509101514 47 13 0.0 4.0 0.00 0.00 0.00 78 1006.0
20260509100020 48 13 0.0 1.0 0.00 0.00 0.00 79 1006.1
20260509094524 48 13 0.0 0.0 0.00 0.00 0.00 79 1006.1
20260509093026 49 13 0.0 0.0 0.00 0.00 0.00 78 1005.9
20260509091514 49 13 0.0 0.0 0.00 0.00 0.00 78 1006.1
20260509090041 50 13 0.0 0.0 0.00 0.00 0.00 78 1006.0
20260509084523 50 13 0.0 0.0 0.00 0.00 0.00 78 1006.0
20260509083038 51 13 0.0 0.0 0.00 0.00 0.00 77 1006.1
20260509081528 51 13 0.0 0.0 0.00 0.00 0.00 76 1006.0
20260509074529 53 13 0.0 0.0 0.00 0.00 0.00 74 1005.9
20260509073021 53 13 0.0 0.0 0.00 0.00 0.00 73 1005.9
20260509071524 54 13 0.0 0.0 0.00 0.00 0.00 73 1006.0
20260509070005 55 13 0.0 0.0 0.00 0.00 0.00 72 1006.0
20260509064503 56 13 0.0 0.0 0.00 0.00 0.00 72 1006.1
20260509063018 56 13 0.0 0.0 0.00 0.00 0.00 72 1006.3
20260509061504 57 13 0.0 0.0 0.00 0.00 0.00 71 1006.3
20260509060015 57 13 0.0 1.0 0.00 0.00 0.00 71 1006.1
20260509054510 58 13 0.0 0.0 0.00 0.00 0.00 70 1006.2
20260509051517 59 13 0.0 0.0 0.00 0.00 0.00 68 1005.9
20260509050041 60 13 0.0 1.0 0.00 0.00 0.00 67 1006.0
20260509044509 60 13 0.0 3.0 0.00 0.00 0.00 66 1006.0
20260509043016 61 13 0.0 1.0 0.00 0.00 0.00 65 1006.0
20260509041508 62 13 0.0 4.0 0.00 0.00 0.00 63 1005.9
20260509040016 62 13 0.0 4.0 0.00 0.00 0.00 61 1005.9
20260509034524 63 13 0.0 3.0 0.00 0.00 0.00 59 1006.0
20260509033017 64 13 0.0 3.0 0.00 0.00 0.00 56 1006.0
20260509031518 65 13 1.0 6.0 0.00 0.00 0.00 53 1005.8
20260509030021 66 13 0.0 4.0 0.00 0.00 0.00 51 1005.4
20260509024514 67 13 0.0 4.0 0.00 0.00 0.00 48 1005.8
20260509023027 67 13 0.0 5.0 0.00 0.00 0.00 40 1005.9
20260509021512 68 13 0.0 3.0 0.00 0.00 0.00 41 1005.5
20260509020021 68 13 0.0 3.0 0.00 0.00 0.00 36 1005.5